Location: Les Salelles
(44.4192°N, 4.1044°E)
Time: 14:47:18
(UTC+00:00)

Cosmos 1939 Rocket - Pass Details

Date: 20 January 2021
Orbit: 531 x 585 km, 97.4° (Epoch: 26 February)

Event Time Altitude Azimuth Distance (km) Brightness Sun altitude
Rises 17:38:26 0° 166° (SSE) 2,795 6.5 -11.0°
Reaches altitude 10° 17:40:35 10° 166° (SSE) 1,897 5.6 -11.4°
Maximum altitude 17:44:43 89° 78° (ENE) 587 2.9 -12.1°
Drops below altitude 10° 17:48:50 10° 348° (NNW) 1,893 5.5 -12.8°
Sets 17:50:58 0° 348° (NNW) 2,788 6.4 -13.2°
